{"data":{"norad_id":44299,"epoch":"2026-05-24T03:20:39.664608Z","epoch_age_seconds":159444,"freshness":"FRESH","line1":"1 44299U 19030A   26144.13934797  .00000034  00000+0  00000+0 0  9996","line2":"2 44299  64.3666 193.4262 0012892 275.4828 134.9025  2.13102273 54415","mean_motion":2.13102273,"eccentricity":0.0012892,"inclination_deg":64.3666,"raan_deg":193.4262,"arg_perigee_deg":275.4828,"mean_anomaly_deg":134.9025,"bstar":0,"rev_number":5441,"period_min":675.73188203394,"perigee_km":19096.980725391,"apogee_km":19162.750559404,"semimajor_km":25508.002642398,"source":"CELESTRAK","updated_at":"2026-05-25T13:38:23.895618Z"}}